Regional Weather Roundup
Issued by NWS

Home | Current Version | Previous Version | Text Only | Print | Product List | Glossary On
Versions: 1 2 3 4 5 6 7 8 9 10 11 12 13 14 15 16 17 18 19 20 21 22 23 24 25 26 27 28 29 30 31 32 33 34 35 36 37 38 39 40 41 42 43 44 45 46 47 48 49 50
000
ASUS45 KPSR 221610
RWRAZ

ARIZONA HOURLY REGIONAL WEATHER ROUNDUP
NATIONAL WEATHER SERVICE PHOENIX AZ
900 AM MST WED NOV 22 2017

NOTE: FAIR INDICATES FEW OR NO CLOUDS BELOW 12,000 FEET WITH NO
SIGNIFICANT WEATHER AND/OR OBSTRUCTIONS TO VISIBILITY.

AZZ001>003-036-221700-
NORTHWEST ARIZONA

CITY           SKY/WX    TMP DP  RH WIND       PRES   REMARKS
BULLHEAD CITY  SUNNY     70  21  16 N24G31    30.18R
KINGMAN        SUNNY     61  24  24 NE7       30.33R
$$

AZZ004>008-015-016-018-221700-
NORTH CENTRAL ARIZONA

CITY           SKY/WX    TMP DP  RH WIND       PRES   REMARKS
GRAND CANYON   SUNNY     43  27  53 CALM      30.47S
WILLIAMS       SUNNY     52  28  40 SE7       30.47R
PRESCOTT       SUNNY     52  30  43 CALM      30.39R
FLAGSTAFF      SUNNY     50  30  46 E6        30.48R
PAYSON           N/A     59  25  27 E5        30.40R
PAGE           SUNNY     49  24  37 VRB3      30.44R
$$

AZZ009>014-017-221700-
NORTHEAST ARIZONA

CITY           SKY/WX    TMP DP  RH WIND       PRES   REMARKS
WINSLOW        MOSUNNY   42  18  37 E3        30.45R
SAINT JOHNS    MOSUNNY   40  19  43 N3        30.45R
WINDOW ROCK    MOSUNNY   36  20  52 CALM      30.47R
SHOW LOW       MOSUNNY   45  19  36 CALM      30.48R
$$

AZZ540-542>544-546-548-221700-
GREATER PHOENIX AREA

CITY           SKY/WX    TMP DP  RH WIND       PRES   REMARKS
PHOENIX        MOSUNNY   65  33  30 SE3       30.16R
BUCKEYE        SUNNY     64  43  45 CALM      30.16R
GLENDALE       MOSUNNY   61  36  39 CALM      30.18R
LUKE AFB       SUNNY     65  34  31 CALM      30.16R
DEER VALLEY    SUNNY     70  30  22 CALM      30.17R
SCOTTSDALE     SUNNY     66  38  35 CALM      30.18R
MESA-FALCON    MOSUNNY   73  27  17 NE13      30.17R
MESA-GATEWAY   MOSUNNY   63  30  29 CALM      30.18R
CHANDLER       MOSUNNY   59  32  36 CALM      30.18R
$$

AZZ539-553-221700-
SOUTHWEST MARICOPA COUNTY AND PINAL COUNTY

CITY           SKY/WX    TMP DP  RH WIND       PRES   REMARKS
CASA GRANDE    NOT AVBL
GILA BEND      MOSUNNY   63  25  23 NE10      30.13R
$$

AZZ503-504-507>509-221700-
SOUTHEAST ARIZONA

CITY           SKY/WX    TMP DP  RH WIND       PRES   REMARKS
TUCSON         SUNNY     69  19  15 SE13      30.23R
DAVIS-MONTHAN  SUNNY     67  21  17 E6        30.21R
RYAN FIELD     SUNNY     70  19  14 E16G24    30.21
NOGALES        SUNNY     65  18  16 CALM      30.26R
SIERRA VISTA   SUNNY     59  15  18 NE7       30.34S
DOUGLAS        SUNNY     58  17  20 N7        30.33R
SAFFORD        SUNNY     58  19  22 SE8       30.34R
$$

AZZ532-221700-
SOUTHWEST ARIZONA

CITY           SKY/WX    TMP DP  RH WIND       PRES   REMARKS
YUMA           MOSUNNY   70  28  21 NE5       30.11R
$$

CAZ041-043-047-048-061-525>527-560>570-221700-
SOUTHERN CALIFORNIA

CITY           SKY/WX    TMP DP  RH WIND       PRES   REMARKS
DOWNTOWN L.A.  SUNNY     70  38  31 CALM      30.06R
L.A. AIRPORT   SUNNY     74  37  26 CALM      30.06R
SAN DIEGO      SUNNY     66  48  52 CALM      30.06R
BURBANK        SUNNY     70  39  32 NW3       30.09R
ONTARIO        SUNNY     71  38  29 NW5       30.09R
RIVERSIDE      SUNNY     67  39  35 E7        30.10R
PALM SPRINGS   SUNNY     77  42  28 W7        30.14R
EL CENTRO NAS  SUNNY     66  29  24 SW3       30.12R
IMPERIAL       SUNNY     65  33  30 W3        30.10R
BLYTHE         SUNNY     64  19  17 SW3       30.16R
$$

NVZ020-UTZ003-221700-
SOUTHERN NEVADA-UTAH

CITY           SKY/WX    TMP DP  RH WIND       PRES   REMARKS
LAS VEGAS      SUNNY     61  36  39 CALM      30.30R
SALT LAKE CITY PTSUNNY   50  39  66 SE5       30.43R
$$

NMZ009-TXZ055-221700-
NEW MEXICO-WEST TEXAS

CITY           SKY/WX    TMP DP  RH WIND       PRES   REMARKS
ALBUQUERQUE    CLOUDY    40  27  59 CALM      30.43R
EL PASO        MOSUNNY   54  26  34 N7        30.41R
$$


........................KEY........................
SKY/WX - SKY CONDITION/WEATHER
TMP    - TEMPERATURE IN FAHRENHEIT
DP     - DEW POINT IN FAHRENHEIT
RH     - RELATIVE HUMIDITY IN PERCENT
WIND   - DIRECTION AND SPEED IN MILES PER HOUR (MPH)
VRB    - VARIABLE WIND DIRECTION
PRES   - MEAN SEA LEVEL PRESSURE IN INCHES OF MERCURY
         F - FALLING PRESSURE   R - RISING PRESSURE
         S - STEADY PRESSURE
VSB    - VISIBILITY IN MILES
HX     - HEAT INDEX IN FAHRENHEIT
WCI    - WIND CHILL INDEX IN FAHRENHEIT
TC     - TEMPERATURE IN CELSIUS WHICH IS ALSO KNOWN AS
         TEMPERATURE IN CENTIGRADE
AFB    - AIR FORCE BASE
         LUKE AFB IS LUKE AIR FORCE BASE
         DAVIS-MONTHAN IS DAVIS-MONTHAN AIR FORCE BASE
NAS    - NAVAL AIR STATION
         EL CENTRO NAS IS EL CENTRO NAVAL AIR STATION
N/A    - NOT AVAILABLE




USA.gov is the U.S. government's official web portal to all federal, state and local government web resources and services.